EZYDW12 BIKF-EGKK

Flight info

Callsign EZYDW12
Flight time N/A
Altitude 35000
Route PIXUM2C PIXUM DCT PETUX DCT PODAR DCT ERAKA/N0452F350 DCT ETSOM DCT MAKUX DCT SOSIM L15 KEPAD L151 DISIT
Aircraft A320/M-SDE3FGHIRWY/LB1

Departure

Time 2026-04-28 16:18
Airport Keflavik International Airport (BIKF)

Arrival

Time N/A
Airport London Gatwick Airport (EGKK)
Time Latitude Longitude Altitude Speed Heading
2026-04-28 15:48 63.99370 -22.62219 162 ft 0 kts 235°
2026-04-28 16:10 63.99374 -22.62207 162 ft 2 kts 235°
2026-04-28 16:11 63.99397 -22.62134 162 ft 3 kts 227°
2026-04-28 16:11 63.99428 -22.62076 163 ft 3 kts 200°
2026-04-28 16:12 63.99453 -22.62076 163 ft 1 kts 150°
2026-04-28 16:12 63.99454 -22.62077 163 ft 0 kts 150°
2026-04-28 16:14 63.99452 -22.62074 163 ft 3 kts 150°
2026-04-28 16:14 63.99283 -22.61991 163 ft 20 kts 178°
2026-04-28 16:15 63.99173 -22.61915 162 ft 8 kts 103°
2026-04-28 16:15 63.99172 -22.61768 164 ft 10 kts 89°
2026-04-28 16:15 63.99173 -22.61585 166 ft 13 kts 90°
2026-04-28 16:16 63.99172 -22.61092 169 ft 14 kts 89°
2026-04-28 16:16 63.99173 -22.60858 170 ft 16 kts 90°
2026-04-28 16:17 63.99155 -22.60565 171 ft 12 kts 140°
2026-04-28 16:17 63.99028 -22.60541 169 ft 36 kts 180°
2026-04-28 16:17 63.98525 -22.60547 165 ft 105 kts 180°
2026-04-28 16:17 63.97958 -22.60529 162 ft 140 kts 180°
2026-04-28 16:18 63.96852 -22.60604 221 ft 174 kts 182°
2026-04-28 16:18 63.95592 -22.60670 670 ft 182 kts 181°
2026-04-28 16:18 63.94316 -22.60673 1354 ft 183 kts 177°
2026-04-28 16:18 63.93120 -22.59640 1766 ft 197 kts 140°
2026-04-28 16:19 63.92115 -22.57274 2029 ft 218 kts 130°
2026-04-28 16:19 63.91141 -22.54488 2364 ft 237 kts 128°
2026-04-28 16:19 63.90083 -22.51383 2780 ft 257 kts 128°
2026-04-28 16:19 63.88958 -22.48143 3510 ft 264 kts 129°
2026-04-28 16:20 63.87790 -22.44876 4316 ft 268 kts 130°
2026-04-28 16:20 63.86586 -22.41586 4944 ft 273 kts 130°
2026-04-28 16:20 63.85362 -22.38302 5428 ft 274 kts 131°
2026-04-28 16:20 63.84115 -22.35002 6269 ft 276 kts 131°
2026-04-28 16:21 63.82853 -22.31679 6929 ft 281 kts 131°
2026-04-28 16:21 63.81586 -22.28360 7119 ft 281 kts 131°
2026-04-28 16:21 63.80307 -22.25015 7177 ft 281 kts 131°
2026-04-28 16:21 63.79022 -22.21665 7177 ft 280 kts 131°
2026-04-28 16:22 63.77742 -22.18329 7178 ft 280 kts 131°
2026-04-28 16:22 63.76462 -22.15008 7178 ft 280 kts 131°
2026-04-28 16:22 63.75194 -22.11726 7177 ft 280 kts 131°
2026-04-28 16:22 63.73911 -22.08397 7177 ft 280 kts 131°
2026-04-28 16:23 63.72633 -22.05076 7177 ft 279 kts 130°
2026-04-28 16:23 63.71492 -22.01508 7171 ft 281 kts 125°
2026-04-28 16:23 63.70381 -21.97856 7339 ft 285 kts 125°
2026-04-28 16:23 63.69262 -21.94173 8173 ft 285 kts 125°
2026-04-28 16:24 63.68149 -21.90522 8943 ft 287 kts 125°
2026-04-28 16:24 63.67008 -21.86793 9659 ft 291 kts 125°
2026-04-28 16:24 63.65848 -21.83011 9931 ft 293 kts 125°
2026-04-28 16:24 63.64664 -21.79161 10005 ft 310 kts 125°
2026-04-28 16:25 63.63417 -21.75122 10001 ft 310 kts 125°
2026-04-28 16:25 63.62170 -21.71082 10003 ft 316 kts 125°
2026-04-28 16:25 63.60879 -21.66910 10131 ft 334 kts 125°
2026-04-28 16:25 63.59511 -21.62483 10295 ft 356 kts 125°
2026-04-28 16:26 63.58064 -21.57811 10611 ft 370 kts 125°
2026-04-28 16:26 63.56582 -21.53028 11185 ft 375 kts 125°
2026-04-28 16:26 63.55093 -21.48229 11770 ft 379 kts 125°
2026-04-28 16:26 63.55071 -21.48158 11776 ft 379 kts 125°
2026-04-28 16:27 63.53570 -21.43340 11968 ft 380 kts 125°
2026-04-28 16:27 63.52049 -21.38483 12011 ft 380 kts 125°
2026-04-28 16:27 63.48992 -21.28739 12352 ft 384 kts 126°
2026-04-28 16:28 63.47452 -21.23853 13013 ft 386 kts 126°
2026-04-28 16:28 63.45898 -21.18933 13616 ft 389 kts 126°
2026-04-28 16:28 63.44326 -21.13963 14192 ft 392 kts 126°
2026-04-28 16:28 63.42746 -21.09076 14815 ft 392 kts 128°
2026-04-28 16:29 63.39432 -20.99201 15845 ft 401 kts 125°
2026-04-28 16:29 63.36244 -20.88858 16889 ft 408 kts 124°
2026-04-28 16:30 63.34613 -20.83663 17398 ft 411 kts 126°
2026-04-28 16:30 63.32910 -20.78511 17893 ft 414 kts 127°
2026-04-28 16:30 63.31157 -20.73402 18372 ft 416 kts 128°
2026-04-28 16:30 63.29394 -20.68366 18828 ft 419 kts 128°
2026-04-28 16:31 63.27589 -20.63244 19275 ft 422 kts 128°
2026-04-28 16:31 63.25777 -20.58088 19709 ft 425 kts 128°
2026-04-28 16:31 63.23960 -20.52884 20123 ft 427 kts 128°
2026-04-28 16:31 63.22134 -20.47639 20538 ft 430 kts 128°
2026-04-28 16:32 63.20301 -20.42366 20941 ft 432 kts 128°
2026-04-28 16:32 63.16596 -20.31752 21672 ft 437 kts 128°
2026-04-28 16:32 63.14725 -20.26427 22021 ft 440 kts 128°
2026-04-28 16:33 63.12842 -20.21085 22362 ft 442 kts 128°
2026-04-28 16:33 63.11582 -20.17520 22583 ft 443 kts 128°
2026-04-28 16:33 63.09029 -20.10326 23007 ft 446 kts 128°
2026-04-28 16:33 63.07134 -20.04990 23322 ft 448 kts 128°
2026-04-28 16:34 63.05206 -19.99564 23629 ft 450 kts 128°
2026-04-28 16:34 63.03267 -19.94102 23930 ft 452 kts 128°
2026-04-28 16:34 63.01318 -19.88624 24222 ft 454 kts 128°
2026-04-28 16:34 62.99360 -19.83141 24508 ft 456 kts 128°
2026-04-28 16:35 62.97388 -19.77650 24781 ft 458 kts 129°
2026-04-28 16:35 62.95401 -19.72147 25040 ft 460 kts 129°
2026-04-28 16:35 62.93435 -19.66712 25292 ft 461 kts 129°
2026-04-28 16:35 62.91435 -19.61180 25550 ft 463 kts 129°
2026-04-28 16:36 62.89430 -19.55630 25776 ft 465 kts 129°
2026-04-28 16:36 62.87409 -19.50047 26006 ft 466 kts 129°
2026-04-28 16:36 62.85388 -19.44484 26227 ft 468 kts 129°
2026-04-28 16:36 62.83354 -19.38904 26438 ft 469 kts 129°
2026-04-28 16:37 62.81309 -19.33313 26642 ft 471 kts 129°
2026-04-28 16:37 62.79252 -19.27717 26840 ft 472 kts 129°
2026-04-28 16:37 62.77184 -19.22113 27043 ft 473 kts 129°
2026-04-28 16:38 62.73151 -19.10915 27580 ft 471 kts 123°
2026-04-28 16:38 62.71454 -19.04784 27843 ft 471 kts 121°
2026-04-28 16:38 62.69793 -18.98633 28111 ft 470 kts 121°
2026-04-28 16:38 62.68126 -18.92499 28376 ft 470 kts 121°
2026-04-28 16:39 62.66452 -18.86385 28635 ft 469 kts 121°
2026-04-28 16:39 62.64783 -18.80294 28895 ft 469 kts 121°
2026-04-28 16:39 62.63110 -18.74194 29158 ft 468 kts 121°
2026-04-28 16:39 62.61434 -18.68110 29419 ft 468 kts 121°
2026-04-28 16:40 62.59776 -18.62126 29675 ft 467 kts 121°
2026-04-28 16:40 62.58094 -18.56080 29931 ft 467 kts 121°
2026-04-28 16:40 62.56412 -18.50044 30185 ft 466 kts 121°
2026-04-28 16:40 62.54733 -18.44025 30437 ft 466 kts 121°
2026-04-28 16:41 62.53058 -18.38025 30685 ft 465 kts 121°
2026-04-28 16:41 62.51381 -18.32027 30930 ft 465 kts 121°
2026-04-28 16:41 62.49700 -18.26039 31176 ft 464 kts 122°
2026-04-28 16:41 62.48034 -18.20131 31412 ft 464 kts 122°
2026-04-28 16:42 62.46349 -18.14167 31652 ft 463 kts 122°
2026-04-28 16:42 62.44666 -18.08225 31888 ft 463 kts 122°
2026-04-28 16:42 62.42984 -18.02297 32130 ft 463 kts 122°
2026-04-28 16:42 62.41298 -17.96367 32354 ft 462 kts 122°
2026-04-28 16:43 62.39614 -17.90469 32585 ft 462 kts 122°
2026-04-28 16:43 62.37927 -17.84573 32811 ft 461 kts 122°
2026-04-28 16:43 62.36233 -17.78669 33032 ft 461 kts 122°
2026-04-28 16:43 62.34565 -17.72869 33252 ft 460 kts 122°
2026-04-28 16:44 62.32878 -17.67014 33474 ft 460 kts 122°
2026-04-28 16:44 62.31185 -17.61147 33694 ft 459 kts 122°
2026-04-28 16:44 62.29496 -17.55306 33907 ft 459 kts 122°
2026-04-28 16:44 62.27802 -17.49483 34122 ft 458 kts 122°
2026-04-28 16:45 62.26126 -17.43748 34332 ft 458 kts 122°
2026-04-28 16:45 62.24427 -17.37951 34544 ft 458 kts 122°
2026-04-28 16:45 62.22734 -17.32182 34749 ft 457 kts 122°
2026-04-28 16:45 62.21040 -17.26425 34944 ft 457 kts 122°
2026-04-28 16:46 62.19337 -17.20650 35011 ft 459 kts 122°
2026-04-28 16:46 62.15919 -17.09059 35014 ft 460 kts 122°
2026-04-28 16:47 62.12483 -16.97463 35013 ft 461 kts 123°
2026-04-28 16:47 62.09028 -16.85903 35008 ft 461 kts 123°
2026-04-28 16:48 62.05597 -16.74446 35010 ft 461 kts 123°
2026-04-28 16:48 62.02135 -16.62944 35015 ft 461 kts 123°
2026-04-28 16:49 61.98660 -16.51473 35010 ft 461 kts 123°
2026-04-28 16:49 61.95167 -16.40018 35008 ft 461 kts 123°
2026-04-28 16:50 61.91669 -16.28604 35009 ft 461 kts 123°
2026-04-28 16:50 61.88153 -16.17193 35011 ft 461 kts 123°
2026-04-28 16:51 61.84656 -16.05877 35017 ft 461 kts 123°
2026-04-28 16:51 61.81129 -15.94512 35015 ft 461 kts 123°
2026-04-28 16:52 61.77588 -15.83180 35020 ft 461 kts 123°
2026-04-28 16:52 61.74064 -15.71918 35018 ft 461 kts 124°
2026-04-28 16:53 61.70512 -15.60646 35019 ft 461 kts 124°
2026-04-28 16:53 61.66942 -15.49389 35021 ft 461 kts 124°
2026-04-28 16:54 61.63367 -15.38166 35021 ft 461 kts 124°
2026-04-28 16:54 61.59797 -15.27025 35014 ft 460 kts 124°
2026-04-28 16:55 61.56216 -15.15889 35010 ft 460 kts 124°
2026-04-28 16:55 61.52622 -15.04762 35007 ft 460 kts 124°
2026-04-28 16:56 61.48563 -14.94459 35004 ft 459 kts 139°
2026-04-28 16:56 61.43565 -14.86245 35001 ft 459 kts 143°
2026-04-28 16:57 61.38496 -14.78119 35013 ft 459 kts 143°
2026-04-28 16:57 61.33411 -14.69976 35013 ft 460 kts 143°
2026-04-28 16:58 61.28327 -14.61861 35011 ft 460 kts 143°
2026-04-28 16:58 61.23274 -14.53817 35011 ft 460 kts 143°
2026-04-28 16:59 61.18179 -14.45747 35012 ft 460 kts 143°
2026-04-28 16:59 61.13937 -14.39072 35013 ft 460 kts 143°
2026-04-28 17:00 61.08003 -14.29758 35015 ft 460 kts 143°
2026-04-28 17:00 61.03759 -14.23110 35017 ft 460 kts 143°
2026-04-28 17:01 60.98650 -14.15153 35016 ft 460 kts 143°
2026-04-28 17:01 60.93540 -14.07222 35013 ft 460 kts 143°
2026-04-28 17:02 60.88425 -13.99315 35011 ft 460 kts 143°
2026-04-28 17:02 60.83307 -13.91441 35011 ft 460 kts 143°
2026-04-28 17:03 60.75642 -13.79709 35009 ft 460 kts 143°